FW0071 Weather Reports


time (UTC)temp
F
wind
direction
speed
knots
gust
knots
rain 1hr
in
rain 24hr
in
rain mn
in
humidity
%
barometer
mb
20260510090016 62 283 0.0 0.9 0.00 0.00 0.00 77 1012.0
20260510084507 62 209 0.0 1.7 0.00 0.00 0.00 78 1012.1
20260510083006 61 278 0.0 0.0 0.00 0.00 0.00 78 1012.1
20260510081515 61 215 0.0 0.0 0.00 0.00 0.00 78 1012.0
20260510080004 61 177 0.0 1.7 0.00 0.00 0.00 79 1012.0
20260510074502 60 201 0.0 0.0 0.00 0.00 0.00 80 1011.9
20260510073059 60 152 0.0 0.0 0.00 0.00 0.00 81 1011.8
20260510071600 59 110 0.0 0.0 0.00 0.00 0.00 81 1011.5
20260510070058 59 110 0.0 0.0 0.00 0.00 0.00 83 1011.4
20260510064551 58 110 0.0 0.0 0.00 0.00 0.00 86 1011.4
20260510063048 56 110 0.0 0.0 0.00 0.00 0.00 89 1011.3
20260510061550 55 110 0.0 0.0 0.00 0.00 0.00 92 1011.1
20260510060047 54 188 0.0 0.0 0.00 0.00 0.00 93 1011.1
20260510054549 53 188 0.0 0.0 0.00 0.00 0.00 93 1011.1
20260510053044 51 188 0.0 0.9 0.00 0.00 0.00 93 1011.1
20260510051545 51 107 0.0 0.0 0.00 0.00 0.00 93 1011.0
20260510050043 51 107 0.0 0.0 0.00 0.00 0.00 92 1011.0
20260510044545 51 107 0.0 0.0 0.00 0.00 0.00 92 1011.0
20260510043041 51 107 0.0 0.0 0.00 0.00 0.00 92 1011.0
20260510041540 51 107 0.0 0.0 0.00 0.00 0.00 92 1010.9
20260510040038 52 107 0.0 0.0 0.00 0.00 0.00 92 1011.0
20260510034540 52 107 0.0 0.0 0.00 0.00 0.00 92 1011.1
20260510033045 52 107 0.0 0.0 0.00 0.00 0.00 92 1011.1
20260510031544 52 107 0.0 0.0 0.00 0.00 0.00 92 1011.2
20260510030035 52 107 0.0 0.0 0.00 0.00 0.00 92 1011.1
20260510024542 52 107 0.0 0.0 0.00 0.00 0.00 92 1011.2
20260510023033 52 107 0.0 0.0 0.00 0.00 0.00 92 1011.2
20260510021534 52 107 0.0 0.0 0.00 0.00 0.00 92 1011.3
20260510020031 53 107 0.0 0.0 0.00 0.00 0.00 92 1011.2
20260510014533 53 107 0.0 0.0 0.00 0.00 0.00 92 1011.2
20260510013029 53 107 0.0 0.0 0.00 0.00 0.00 92 1011.2
20260510011535 53 107 0.0 0.0 0.00 0.00 0.00 92 1011.1
20260510010025 53 107 0.0 0.0 0.00 0.00 0.00 92 1011.4
20260510004524 53 107 0.0 0.0 0.00 0.00 0.00 91 1011.5
20260510003047 53 107 0.0 0.0 0.00 0.00 0.00 91 1011.5
20260510001526 53 107 0.0 0.0 0.00 0.00 0.00 91 1011.4
20260510000022 54 107 0.0 0.0 0.00 0.00 0.00 91 1011.4
20260509234527 54 107 0.0 0.0 0.00 0.00 0.00 90 1011.6
20260509233022 54 107 0.0 0.0 0.00 0.00 0.00 90 1011.9
20260509231528 54 107 0.0 0.0 0.00 0.00 0.00 90 1011.8
20260509230021 54 107 0.0 0.0 0.00 0.00 0.00 90 1012.1
20260509224515 55 107 0.0 0.0 0.00 0.00 0.00 89 1012.1
20260509223011 55 107 0.0 0.0 0.00 0.00 0.00 89 1012.1
20260509221510 56 107 0.0 0.0 0.00 0.00 0.00 89 1011.7
20260509220007 56 107 0.0 0.0 0.00 0.00 0.00 89 1012.1
20260509214508 56 107 0.0 0.0 0.00 0.00 0.00 89 1012.3
20260509213005 56 107 0.0 0.0 0.00 0.00 0.00 88 1012.3
20260509211504 55 107 0.0 0.0 0.00 0.00 0.00 88 1012.2
20260509210012 55 107 0.0 0.0 0.00 0.00 0.00 85 1012.2
20260509204503 55 107 0.0 0.0 0.00 0.00 0.00 84 1012.1
20260509203002 56 107 0.0 0.0 0.00 0.00 0.00 83 1011.7
20260509201502 57 107 0.0 0.0 0.00 0.00 0.00 82 1011.4
20260509200006 58 107 0.0 0.0 0.00 0.00 0.00 81 1011.2
20260509194600 58 107 0.0 0.0 0.00 0.00 0.00 80 1011.1
20260509193100 59 107 0.0 0.0 0.00 0.00 0.00 81 1010.7
20260509191600 59 107 0.0 0.0 0.00 0.00 0.00 80 1010.3
20260509190059 59 107 0.0 0.0 0.00 0.00 0.00 80 1010.3
20260509184602 59 107 0.0 0.0 0.00 0.00 0.00 80 1010.4
20260509183139 60 148 0.0 0.0 0.00 0.00 0.00 79 1010.2
20260509181615 60 144 0.0 0.9 0.00 0.00 0.00 79 1010.1
20260509180058 60 196 0.0 0.9 0.00 0.00 0.00 79 1009.8
20260509174556 60 123 0.0 0.0 0.00 0.00 0.00 80 1009.5
20260509173103 60 109 0.0 0.9 0.00 0.00 0.00 80 1009.1
20260509171559 60 164 0.0 0.0 0.00 0.00 0.00 79 1009.3
20260509170057 60 184 0.0 1.7 0.00 0.00 0.00 82 1009.6
20260509164600 61 180 0.0 0.0 0.00 0.00 0.00 83 1009.6
20260509163057 60 170 0.0 0.9 0.00 0.00 0.00 84 1009.5
20260509161552 60 218 0.0 0.0 0.00 0.00 0.00 84 1009.4
20260509160056 61 183 0.0 0.9 0.00 0.00 0.00 82 1009.7
20260509154555 62 215 0.0 2.6 0.00 0.00 0.00 78 1009.9
20260509153050 64 199 0.0 1.7 0.00 0.00 0.00 73 1009.9
20260509151551 64 210 0.0 3.5 0.00 0.00 0.00 70 1009.9
20260509150049 65 163 0.0 0.9 0.00 0.00 0.00 68 1009.8
20260509144548 65 178 0.0 0.0 0.00 0.00 0.00 70 1009.4
20260509143048 65 158 0.0 0.0 0.00 0.00 0.00 69 1009.4
20260509141545 64 195 0.0 0.0 0.00 0.00 0.00 70 1009.4
20260509140051 64 171 0.0 0.0 0.00 0.00 0.00 73 1009.3
20260509134541 63 149 0.0 0.0 0.00 0.00 0.00 73 1009.6
20260509133039 63 113 0.0 0.0 0.00 0.00 0.00 73 1009.8
20260509131536 63 102 0.0 0.0 0.00 0.00 0.00 73 1010.2
20260509130035 63 144 0.0 0.0 0.00 0.00 0.00 73 1010.4
20260509124534 63 98 0.0 0.0 0.00 0.00 0.00 74 1010.4
20260509123033 63 158 0.0 0.9 0.00 0.00 0.00 73 1010.5
20260509121537 63 105 0.0 0.0 0.00 0.00 0.00 73 1010.7
20260509120030 64 136 0.0 0.0 0.00 0.00 0.00 73 1010.7
20260509114529 64 123 0.0 0.9 0.00 0.00 0.00 73 1010.9
20260509113029 64 61 0.0 0.0 0.00 0.00 0.00 74 1010.9
20260509111525 64 148 0.0 0.0 0.00 0.00 0.00 73 1011.1
20260509110024 64 142 0.0 0.0 0.00 0.00 0.00 73 1011.4
20260509104534 63 129 0.0 1.7 0.00 0.00 0.00 73 1011.5
20260509103021 63 138 0.0 0.0 0.00 0.00 0.00 74 1011.5
20260509101519 63 123 0.0 0.0 0.00 0.00 0.00 75 1011.6
20260509100018 62 115 0.0 0.0 0.00 0.00 0.00 75 1011.7
20260509094517 62 123 0.0 6.1 0.00 0.00 0.00 75 1011.8
20260509093016 62 112 0.0 0.0 0.00 0.00 0.00 75 1011.5
20260509091514 61 113 0.0 0.0 0.00 0.00 0.00 76 1011.2